Fort Atkinson, Wisconsin, United States (53538)
Lat: 42.93N, Lon: 88.84W
Wx Zone: WIZ064
Local Info
Past Weather Observations for Today

NOTE: This archive is for the closest National Weather Service station to Fort Atkinson. Information may differ from the station used for current weather conditions.

Time Weather Temperature Dewpoint Humidity Pressure Winds Precip Visibility
18:35
Partly Cloudy
43°F / 6°C 28°F / -2°C 57% 30.06 in
(1018 mb)
SE 13.8 mph
(SE 22 kph)
- 10SM
18:15
Partly Cloudy
45°F / 7°C 28°F / -2°C 53% 30.06 in
(1018 mb)
SE 16.1 mph
(SE 26 kph)
- 10SM
17:55
Overcast
45°F / 7°C 28°F / -2°C 53% 30.06 in
(1018 mb)
ESE 12.7 mph
(ESE 20 kph)
- 10SM
17:35
Mostly Cloudy
46°F / 8°C 28°F / -2°C 50% 30.09 in
(1019 mb)
SE 12.7 mph
(SE 20 kph)
- 10SM
17:15
Partly Cloudy
46°F / 8°C 30°F / -1°C 53% 30.06 in
(1018 mb)
SE 13.8 mph
(SE 22 kph)
- 10SM
16:55
Clear
48°F / 9°C 28°F / -2°C 46% 30.06 in
(1018 mb)
SSE 12.7 mph
(SSE 20 kph)
- 10SM
16:35
Clear
48°F / 9°C 28°F / -2°C 46% 30.06 in
(1018 mb)
SSE 16.1 mph
(SSE 26 kph)
- 10SM
16:15
Clear
48°F / 9°C 28°F / -2°C 46% 30.09 in
(1019 mb)
S 15 mph
(S 24 kph)
- 10SM
15:55
Clear
48°F / 9°C 27°F / -3°C 43% 30.09 in
(1019 mb)
S 18.4 mph
(S 30 kph)
- 10SM
15:35
Clear
50°F / 10°C 28°F / -2°C 43% 30.09 in
(1019 mb)
SSE 17.3 mph
(SSE 28 kph)
- 10SM
15:15
Clear
50°F / 10°C 28°F / -2°C 43% 30.09 in
(1019 mb)
S 17.3 mph
(S 28 kph)
- 10SM
14:55
Clear
50°F / 10°C 28°F / -2°C 43% 30.09 in
(1019 mb)
S 16.1 mph
(S 26 kph)
- 10SM
14:35
Clear
48°F / 9°C 27°F / -3°C 43% 30.12 in
(1020 mb)
SSE 20.7 mph
(SSE 33 kph)
- 10SM
14:15
Clear
48°F / 9°C 27°F / -3°C 43% 30.12 in
(1020 mb)
S 17.3 mph
(S 28 kph)
- 10SM
13:55
Clear
48°F / 9°C 28°F / -2°C 46% 30.12 in
(1020 mb)
SSE 18.4 mph
(SSE 30 kph)
- 10SM
13:35
Clear
48°F / 9°C 28°F / -2°C 46% 30.12 in
(1020 mb)
SSE 20.7 mph
(SSE 33 kph)
- 10SM
13:15
Clear
46°F / 8°C 27°F / -3°C 46% 30.12 in
(1020 mb)
SSE 17.3 mph
(SSE 28 kph)
- 10SM
12:55
Clear
46°F / 8°C 28°F / -2°C 50% 30.15 in
(1021 mb)
SSE 18.4 mph
(SSE 30 kph)
- 10SM
12:35
Clear
46°F / 8°C 28°F / -2°C 50% 30.15 in
(1021 mb)
S 18.4 mph
(S 30 kph)
- 10SM
12:15
Clear
46°F / 8°C 28°F / -2°C 50% 30.15 in
(1021 mb)
S 18.4 mph
(S 30 kph)
- 10SM
11:35
Clear
45°F / 7°C 27°F / -3°C 49% 30.15 in
(1021 mb)
S 16.1 mph
(S 26 kph)
- 10SM
11:15
Clear
45°F / 7°C 27°F / -3°C 49% 30.18 in
(1022 mb)
S 20.7 mph
(S 33 kph)
- 10SM
10:55
Clear
43°F / 6°C 25°F / -4°C 49% 30.18 in
(1022 mb)
SSE 20.7 mph
(SSE 33 kph)
- 10SM
10:35
Clear
43°F / 6°C 27°F / -3°C 53% 30.21 in
(1023 mb)
S 15 mph
(S 24 kph)
- 10SM
10:15
Clear
41°F / 5°C 25°F / -4°C 53% 30.21 in
(1023 mb)
SSE 20.7 mph
(SSE 33 kph)
- 10SM
09:55
Partly Cloudy
41°F / 5°C 25°F / -4°C 53% 30.21 in
(1023 mb)
SSE 13.8 mph
(SSE 22 kph)
- 10SM
09:35
Overcast
39°F / 4°C 25°F / -4°C 56% 30.21 in
(1023 mb)
SSE 11.5 mph
(SSE 19 kph)
- 10SM
09:10
Mostly Cloudy
39°F / 4°C 25°F / -4°C 56% 30.21 in
(1023 mb)
SSE 12.7 mph
(SSE 20 kph)
- 10SM
08:55
Mostly Cloudy
37°F / 3°C 25°F / -4°C 60% 30.21 in
(1023 mb)
SSE 11.5 mph
(SSE 19 kph)
- 10SM
08:35
Partly Cloudy
36°F / 2°C 27°F / -3°C 70% 30.24 in
(1024 mb)
SE 10.4 mph
(SE 17 kph)
- 10SM
08:15
Mostly Cloudy
34°F / 1°C 25°F / -4°C 70% 30.24 in
(1024 mb)
SSE 10.4 mph
(SSE 17 kph)
- 10SM
07:55
Mostly Cloudy
34°F / 1°C 25°F / -4°C 70% 30.24 in
(1024 mb)
SSE 8.1 mph
(SSE 13 kph)
- 10SM
07:35
Overcast
34°F / 1°C 25°F / -4°C 70% 30.24 in
(1024 mb)
SSE 10.4 mph
(SSE 17 kph)
- 10SM
07:15
Mostly Cloudy
32°F / 0°C 25°F / -4°C 75% 30.24 in
(1024 mb)
SE 9.2 mph
(SE 15 kph)
- 10SM
06:55
Overcast
32°F / 0°C 23°F / -5°C 69% 30.24 in
(1024 mb)
SE 8.1 mph
(SE 13 kph)
- 10SM
06:35
Overcast
32°F / 0°C 23°F / -5°C 69% 30.24 in
(1024 mb)
SE 6.9 mph
(SE 11 kph)
- 10SM
06:15
Overcast
30°F / -1°C 23°F / -5°C 75% 30.24 in
(1024 mb)
SE 5.8 mph
(SE 9 kph)
- 10SM
05:55
Overcast
28°F / -2°C 23°F / -5°C 80% 30.24 in
(1024 mb)
SE 4.6 mph
(SE 7 kph)
- 10SM
05:35
Overcast
28°F / -2°C 23°F / -5°C 80% 30.24 in
(1024 mb)
SE 4.6 mph
(SE 7 kph)
- 10SM
05:15
Overcast
28°F / -2°C 23°F / -5°C 80% 30.24 in
(1024 mb)
SE 5.8 mph
(SE 9 kph)
- 10SM
04:55
Overcast
28°F / -2°C 23°F / -5°C 80% 30.21 in
(1023 mb)
SE 5.8 mph
(SE 9 kph)
- 10SM
04:35
Mostly Cloudy
27°F / -3°C 23°F / -5°C 86% 30.21 in
(1023 mb)
SE 4.6 mph
(SE 7 kph)
- 10SM
04:15
Clear
27°F / -3°C 21°F / -6°C 80% 30.21 in
(1023 mb)
SE 5.8 mph
(SE 9 kph)
- 10SM
03:55
Partly Cloudy
27°F / -3°C 23°F / -5°C 86% 30.21 in
(1023 mb)
SE 5.8 mph
(SE 9 kph)
- 10SM
03:35
Mostly Cloudy
27°F / -3°C 23°F / -5°C 86% 30.18 in
(1022 mb)
ESE 4.6 mph
(ESE 7 kph)
- 10SM
03:15
Mostly Cloudy
27°F / -3°C 23°F / -5°C 86% 30.18 in
(1022 mb)
E 6.9 mph
(E 11 kph)
- 10SM
02:55
Overcast
27°F / -3°C 23°F / -5°C 86% 30.18 in
(1022 mb)
E 5.8 mph
(E 9 kph)
- 10SM
02:35
Overcast
27°F / -3°C 23°F / -5°C 86% 30.21 in
(1023 mb)
E 5.8 mph
(E 9 kph)
- 10SM
02:15
Overcast
27°F / -3°C 23°F / -5°C 86% 30.18 in
(1022 mb)
E 4.6 mph
(E 7 kph)
- 10SM
01:55
Mostly Cloudy
25°F / -4°C 21°F / -6°C 86% 30.18 in
(1022 mb)
E 4.6 mph
(E 7 kph)
- 10SM
01:35
Partly Cloudy
25°F / -4°C 21°F / -6°C 86% 30.18 in
(1022 mb)
E 4.6 mph
(E 7 kph)
- 10SM
01:15
Clear
25°F / -4°C 21°F / -6°C 86% 30.18 in
(1022 mb)
E 4.6 mph
(E 7 kph)
- 10SM
00:55
Clear
25°F / -4°C 21°F / -6°C 86% 30.18 in
(1022 mb)
E 4.6 mph
(E 7 kph)
- 10SM
00:35
Clear
25°F / -4°C 19°F / -7°C 80% 30.18 in
(1022 mb)
E 3.5 mph
(E 6 kph)
- 10SM
00:15
Clear
25°F / -4°C 19°F / -7°C 80% 30.18 in
(1022 mb)
E 4.6 mph
(E 7 kph)
- 10SM
Time Weather Temperature Dewpoint Humidity Pressure Winds Precip Visibility


Weather for websites

WeatherForYou.com, LLC is not responsible for any damages or problems caused by this service. Current weather conditions are obtained from the closest station including government and personal stations which may have varying degrees of accuracy. Weather forecasts are derived from the NOAA NDFD. Like all things, this site belongs to Jesus Christ... He just trusts me to maintain it. If you have any questions or comments email webmaster@weatherforyou.com

Copyright © 2014, WeatherForYou.com LLC. All rights reserved.